Weather in Karata

Russia / Republic of Dagestan     42°35′44″N   46°20′09″E
temp.,
°C
wind,
m/s
gust,
m/s
humid.,
%
clouds,
%
prec.,
mm/h
press.,
hPa
HPBL,
m
17 april, sat
sat1700:00+2ssw33826 0.0 102252
03:00+1ssw33805 0.0 102249
06:00+1s348265 0.0 102269
09:00+8ssw2362100 0.0 1018654
12:00+11wsw1358100 0.0 10171273
15:00+11wnw1251100 0.1 10171431
18:00+7nw1174100 0.0 1019141
21:00+5s228372 0.1 102048
18 april, sun
sun1800:00+4ssw3382100 0.0 102048
03:00+5ssw2385100 0.0 1019111
06:00+5ssw3387100 0.1 1019150
09:00+10sw1364100 0.1 1016874
12:00+12sw355188 0.1 10141515
15:00+13wsw254291 0.1 10131999
18:00+8nnw2282100 1.5 1017172
21:00+6nnw1196100 2.6 1019112
19 april, mon
mon1900:00+6s2286100 1.1 1018180
03:00+5s2283100 1.1 101820
06:00+5s2280100 0.0 101844
09:00+10ssw125623 0.0 10161177
12:00+11nw1255100 0.1 10151228
15:00+11sw2260100 0.4 10141049
18:00+10sw226692 0.1 1015374
21:00+6ssw338397 0.1 101763
20 april, tue
tue2000:00+6ssw3381100 0.0 101758
03:00+6ssw4380100 0.0 101652
06:00+8ssw4471100 0.0 101471
09:00+14ssw344892 0.0 1011579
12:00+18sw373590 0.0 10091883
15:00+17sw41132100 0.0 10082164
18:00+12ssw4558100 0.0 1010118
21:00+9ssw3477100 0.8 101277
21 april, wed
wed2100:00+7ssw4583100 9.1 1015189
03:00+8ssw2379100 9.1 101351
06:00+7sw228315 0.0 101473
09:00+12nnw236325 0.1 1013713
12:00+12nw266167 0.9 10131384
15:00+9n3282100 2.1 1014496
18:00+6e2393100 3.7 1017404
21:00+6ne129697 5.8 1018289